Location: Newark
(41.0400°S, 62.7845°W)
Time: 06:05:45
(UTC+00:00)

ISS - Visible Passes

Search period start: 23 October 2021 00:00
Search period end: 02 November 2021 00:00
Orbit: 417 x 423 km, 51.6° (Epoch: 22 October)

Date Brightness Start Highest point End Pass type
(mag) Time Alt. Az. Time Alt. Az. Time Alt. Az.
23 Oct -0.8 00:31:00 10° SW 00:32:58 14° S 00:34:57 10° SSE visible
23 Oct -0.3 02:08:08 10° SSW 02:08:34 12° SSW 02:08:34 12° SSW visible
23 Oct -0.9 23:43:21 10° SW 23:45:28 15° S 23:47:37 10° SSE visible
24 Oct -1.1 01:20:58 10° SSW 01:23:09 17° S 01:23:09 17° S visible
25 Oct -1.0 00:33:45 10° SSW 00:35:52 15° S 00:37:41 11° SE visible
25 Oct -0.3 02:10:14 10° SW 02:10:40 13° SW 02:10:40 13° SW visible
25 Oct -1.0 23:46:23 10° SSW 23:48:20 14° S 23:50:18 10° SE visible
26 Oct -1.5 01:23:05 10° SW 01:25:11 23° S 01:25:11 23° S visible
27 Oct -1.6 00:35:56 10° SSW 00:38:37 20° SSE 00:39:41 18° SE visible
27 Oct -0.4 02:12:23 10° SW 02:12:40 12° SW 02:12:40 12° SW visible
27 Oct -1.3 23:48:45 10° SSW 23:51:08 17° SSE 23:53:30 10° ESE visible
28 Oct -1.8 01:25:09 10° SW 01:27:10 30° SSW 01:27:10 30° SSW visible
29 Oct -2.7 00:37:57 10° SW 00:41:11 36° SSE 00:41:41 34° SE visible
29 Oct -2.0 23:50:47 10° SW 23:53:45 26° SSE 23:56:13 13° ESE visible
30 Oct -1.7 01:27:23 10° WSW 01:29:11 27° WSW 01:29:11 27° WSW visible
31 Oct -3.9 00:40:01 10° SW 00:43:30 89° ESE 00:43:45 76° ENE visible
31 Oct -3.3 23:52:46 10° SW 23:56:10 55° SSE 23:58:20 20° ENE visible
01 Nov -1.1 01:30:16 10° W 01:31:19 15° WNW 01:31:19 15° WNW visible
